Regional Weather Roundup
Issued by NWS

Home | Current Version | Previous Version | Graphics & Text | Print | Product List | Glossary On
Versions: 1 2 3 4 5 6 7 8 9 10 11 12 13 14 15 16 17 18 19 20 21 22 23 24 25 26 27 28 29 30 31 32 33 34 35 36 37 38 39 40 41 42 43 44 45 46 47 48 49 50
000
ASUS45 KBOI 241410
RWRID
WEATHER ROUNDUP FOR IDAHO
NATIONAL WEATHER SERVICE BOISE ID
700 AM MST SAT JAN 24 2015

NOTE: "FAIR" INDICATES FEW OR NO CLOUDS BELOW 12000 FEET
WITH NO SIGNIFICANT WEATHER AND/OR OBSTRUCTIONS TO VISIBILITY

IDZ012-014-241500-
SOUTHWEST IDAHO


CITY           SKY/WX    TMP DP  RH WIND       PRES   REMARKS
BOISE          CLOUDY    30  28  92 S5        30.51R WCI  25
CALDWELL       CLOUDY    30  21  69 E7        30.54S WCI  23
MOUNTAIN HOME  CLOUDY    28  27  93 SE7       30.50R WCI  21
$$

IDZ016-017-241500-
SOUTHCENTRAL IDAHO


CITY           SKY/WX    TMP DP  RH WIND       PRES   REMARKS
BURLEY         CLOUDY    29  28  96 CALM      30.45S FOG
JEROME         CLOUDY    25  23  92 NE6       30.46S WCI  18
TWIN FALLS     FOG       30  27  88 E3        30.46S VSB 1/4
$$

IDZ019>023-241500-
SOUTHEAST IDAHO


CITY           SKY/WX    TMP DP  RH WIND       PRES   REMARKS
IDAHO FALLS    CLOUDY    25  23  92 E3        30.49R FOG
POCATELLO      CLOUDY    27  27 100 NE7       30.48R FOG     WCI  19
REXBURG        CLOUDY    20  18  92 NE6       30.47R WCI  12
$$

IDZ006-010-011-018-031-032-241500-
CENTRAL IDAHO MOUNTAINS


CITY           SKY/WX    TMP DP  RH WIND       PRES   REMARKS
MCCALL         CLOUDY    29  26  89 CALM      30.41R
HAILEY         PTCLDY    18  16  93 CALM      30.42S
STANLEY          N/A     22  14  71 CALM      30.44R
SALMON         MOCLDY    23  18  80 CALM      30.39F
CHALLIS        CLOUDY    25  22  88 CALM      30.36F
$$

IDZ002-004-006-007-026-241500-
NORTHERN IDAHO


CITY           SKY/WX    TMP DP  RH WIND       PRES   REMARKS
LEWISTON       CLOUDY    49  39  68 CALM      30.30R
LOWELL           N/A     35  33  92 CALM      30.38F
COEUR D`ALENE  CLOUDY    37  36  93 CALM      30.26R
MULLAN PASS    FOG       34  34 100 NW9G20    30.20F VSB 1/2 WCI  27
$$


USA.gov is the U.S. government's official web portal to all federal, state and local government web resources and services.